Regional Weather Roundup
Issued by NWS Upton, NY

Current Version | Previous Version | Text Only | Print | Product List | Glossary On
Versions: 1 2 3 4 5 6 7 8 9 10 11 12 13 14 15 16 17 18 19 20 21 22 23 24 25 26 27 28 29 30
000 ASUS41 KOKX 170808 RWROKX Regional Weather Roundup National Weather Service New York NY 300 AM EST SUN DEC 17 2017 Note: "FAIR" indicates few or no clouds below 12,000 feet with no significant weather and/or obstructions to visibility. NYZ071-072-176-178-NJZ106-104-170900- New York City Metro Area CITY SKY/WX TMP DP RH WIND PRES REMARKS Central Park CLOUDY 33 20 58 CALM 30.27R Bronx Bot Gard N/A 32 21 64 NW5 30.27R WCI 27 Bronx Lehman C N/A 32 21 64 NW6 N/A WCI 26 LaGuardia Arpt CLOUDY 35 21 56 N6 30.25R WCI 30 Queens College N/A 34 23 64 N3 N/A Kennedy Intl CLOUDY 34 22 61 N6 30.26R WCI 29 Breezy Point N/A 34 N/A N/A NE2 N/A Brooklyn Coll N/A 36 23 60 NW5 N/A WCI 32 Staten Island N/A 34 23 64 NE5 N/A WCI 30 Newark/Liberty CLOUDY 33 23 66 NE5 30.25R WCI 29 Teterboro CLOUDY 33 20 58 N6 30.25R WCI 28 $$ NYZ177-179-078>081-170900- Long Island New York CITY SKY/WX TMP DP RH WIND PRES REMARKS Jones Beach N/A 34 N/A N/A N7 N/A WCI 28 Wantagh N/A 34 23 64 NW3 N/A Matinecock Pt N/A 34 N/A N/A NW5 N/A WCI 30 Farmingdale CLOUDY 32 22 66 NE5 30.25R WCI 27 MacArthur/ISP NOT AVBL Shirley CLOUDY 31 20 63 CALM 30.25R Mt Sinai Harb N/A N/A N/A N/A N6 N/A Westhampton CLOUDY 29 18 63 N5 30.26R WCI 24 East Hampton MOCLDY 27 15 60 N5 30.24R WCI 22 Southold N/A 30 16 55 N9 N/A WCI 22 Montauk N/A 31 15 52 N14 30.24R WCI 21 $$ NYZ052-065-067-170900- Hudson Valley CITY SKY/WX TMP DP RH WIND PRES REMARKS White Plains CLOUDY 30 19 63 CALM 30.22R Larchmont Harb N/A 32 N/A N/A NW3 N/A Croton On Huds N/A 32 N/A N/A MISG N/A Somers N/A 28 18 64 SE1 N/A Brewster N/A 19 14 79 CALM N/A Newburgh CLOUDY 27 19 74 NW6 30.23R WCI 20 Montgomery CLOUDY 28 16 60 W5 30.22R WCI 23 Otisville N/A 27 19 74 CALM N/A Warwick N/A 30 21 69 W2 N/A Suffern N/A 30 19 64 N2 N/A Poughkeepsie CLOUDY 18 12 77 CALM 30.24R Albany PTCLDY 14 10 84 N5 30.25R WCI 6 $$ NJZ001-105-106-008-010-013-015-019>022-104-170900- New Jersey CITY SKY/WX TMP DP RH WIND PRES REMARKS Newark/Liberty CLOUDY 33 23 66 NE5 30.25R WCI 29 Teterboro CLOUDY 33 20 58 N6 30.25R WCI 28 Caldwell CLOUDY 31 20 63 CALM 30.25R Somerville CLOUDY 31 27 85 CALM 30.23R Linden CLOUDY 34 22 62 CALM 30.26R Perth Amboy N/A 34 N/A N/A N2 N/A Sussex CLOUDY 29 22 75 CALM 30.23R Andover NOT AVBL Trenton CLOUDY 34 25 69 CALM 30.23R Millville CLEAR 25 23 92 CALM 30.24R Atlantic City CLEAR 30 27 88 SW3 30.24R Wrightstown CLOUDY 31 27 85 CALM 30.21R Toms River CLOUDY 30 26 85 NE5 30.24S WCI 25 Belmar CLOUDY 34 25 69 N3 30.24R $$ PAZ047>061-062-071-170900- Eastern Pennsylvania CITY SKY/WX TMP DP RH WIND PRES REMARKS Philadelphia PTCLDY 35 26 69 CALM 30.24R Allentown CLOUDY 33 25 72 CALM 30.23R Scranton CLOUDY 28 22 78 CALM 30.20R $$ CTZ002-004>006-009-010-012-RIZ004-006-007-MAZ004-011-015-170900- Southern New England In CT CITY SKY/WX TMP DP RH WIND PRES REMARKS Bradley INTL PTCLDY 16 10 77 W8 30.24R WCI 5 Hartford CLEAR 25 13 60 NW5 30.25R WCI 19 Danbury CLOUDY 21 16 81 CALM 30.24R Wtrbury/Oxford PTCLDY 15 11 83 CALM 30.21R Norwalk Harbor N/A N/A N/A N/A N7 N/A Bridgeport CLOUDY 28 14 55 N5 30.26R WCI 23 Meriden CLEAR 13 10 88 CALM 30.25R New Haven MOCLDY 19 11 70 NW5 30.25R WCI 12 Chester FAIR 21 10 63 NW6 30.22R WCI 14 Groton CLEAR 25 11 55 N8 30.24R WCI 16 Willimantic PTCLDY 14 9 80 CALM 30.24R In RI CITY SKY/WX TMP DP RH WIND PRES REMARKS Providence CLEAR 21 13 71 W6 30.23R WCI 13 Block Island CLEAR 27 9 46 NW14G20 30.23R WCI 16 Westerly CLEAR 26 11 52 NW6 30.24R WCI 19 In MA CITY SKY/WX TMP DP RH WIND PRES REMARKS Boston CLEAR 22 8 55 W13 30.21R WCI 10 Worcester CLEAR 16 5 62 W3 30.15R Westfield PTCLDY 11 8 88 W3 30.23R Provincetown CLEAR 27 13 55 NW18G24 30.20R WCI 14 Nantucket CLEAR 27 12 53 NW16 30.19R WCI 15 $$ ANZ330-335-338-340-345-350-353-355-170900- Coastal Marine Observations STATION/POSITION TIME SKY/WX TEMP WIND PRES VSBY WAVE AIR SEA DIR/SP/G HT/PER (UTC) (F) (DEG/KT/KT) (MB) (MI) (FT/S) NY Harb Entrance 0650 38 49 350/ 10/ 12 1023.4 2/ 6 20 S Fire Island 0650 38 51 340/ 14/ 17 1023.4 4/ 7 Great South Bay NOT AVBL 15 E Barnegat Li 0730 49 N/A 3/ 6 Hudson Canyon 0650 45 54 320/ 14/ 17 1022.3 6/ 7 Kings Point 0730 34 41 40/ 7/ 9 1025.0 Execution Rocks 0730 35 320/ 8/ 10 N/A Western LI Sound NOT AVBL Central LI Sound 0715 30 340/ 10/ 14 N/A 2 Robbins Reef 0724 34 360/ 8/ 10 1024.6 $$ >>>>>>>>>>>>>>>>>>>>>>>>>>>> KEY <<<<<<<<<<<<<<<<<<<<<<<<<<< > < > SKY/WX - Sky Condition/Present Weather < > TMP - Temperature in Fahrenheit < > DP - Dew Point in Fahrenheit < > RH - Relative Humidity in Percent < > WIND - Direction (from) and Speed in MPH < > PRES - Mean Sea Level Pressure (inches of Hg) < > WCI - Wind Chill Index < > VSB - Visibility in Miles < > HX - Heat Index < > TC - Temperature in Celsius < > VRB - Varibale Wind Direction < > < >>>>>>>>>>>>>>>>>>>>>>>>>>>> KEY <<<<<<<<<<<<<<<<<<<<<<<<<<<

USA.gov is the U.S. government's official web portal to all federal, state and local government web resources and services.